This demonstration page uses our WeatherBlox Daily Observations layout. Learn more.

39.29038, -76.61219

Hourly Observations for January 19, 2019

Temp ( °F °C ) Dew Point ( °F °C ) Humidity (%) Winds ( mph kmh ) Pressure ( in mb ) Visibility ( mi km ) Precip ( " mm )
12:54 am 00:54 undefined 40 4.4 32 0 73 73 undefined N/A 30.18 1022 N/A 0 0
1:54 am 01:54 undefined 39 3.9 31 -0.6 73 73 undefined N/A 30.21 1023 N/A 0 0
2:54 am 02:54 undefined 39 3.9 32 0 76 76 undefined N/A 30.21 1023 N/A 0 0
3:54 am 03:54 undefined 37 2.8 33 0.6 86 86 undefined N/A 30.18 1022 N/A 0 0
4:54 am 04:54 undefined 37 2.8 33 0.6 86 86 undefined N/A 30.18 1022 N/A 0 0
5:54 am 05:54 undefined 37 2.8 33 0.6 86 86 undefined N/A 30.15 1021 N/A 0 0
6:54 am 06:54 undefined 38 3.3 33 0.6 83 83 undefined N/A 30.21 1023 N/A 0 0
7:54 am 07:54 undefined 38 3.3 32 0 79 79 undefined N/A 30.18 1022 N/A 0 0
8:54 am 08:54 undefined 38 3.3 30 -1.1 73 73 undefined N/A 30.21 1023 N/A 0 0
9:54 am 09:54 undefined 38 3.3 29 -1.7 70 70 undefined N/A 30.21 1023 N/A 0 0
10:54 am 10:54 undefined 38 3.3 29 -1.7 70 70 undefined N/A 30.21 1023 N/A 0 0
11:54 am 11:54 undefined 38 3.3 28 -2.2 68 68 undefined N/A 30.18 1022 N/A 0 0
12:54 pm 12:54 undefined 38 3.3 29 -1.7 70 70 undefined N/A 30.15 1021 N/A 0 0
1:54 pm 13:54 undefined 39 3.9 28 -2.2 65 65 undefined N/A 30.09 1019 N/A 0 0
2:54 pm 14:54 undefined 38 3.3 28 -2.2 68 68 undefined N/A 30.06 1018 N/A 0 0
3:54 pm 15:54 undefined 38 3.3 28 -2.2 68 68 undefined N/A 30.03 1017 N/A 0 0
4:54 pm 16:54 undefined 38 3.3 28 -2.2 68 68 undefined N/A 29.97 1015 N/A 0 0
5:54 pm 17:54 undefined 37 2.8 31 -0.6 79 79 undefined N/A 29.94 1014 N/A 0.01 0.254
6:54 pm 18:54 undefined 37 2.8 32 0 82 82 undefined N/A 29.88 1012 N/A 0 0
7:54 pm 19:54 undefined 37 2.8 33 0.6 86 86 undefined N/A 29.83 1010 N/A 0.06 1.524
8:54 pm 20:54 undefined 37 2.8 34 1.1 89 89 undefined N/A 29.77 1008 N/A 0.17 4.318
9:54 pm 21:54 undefined 38 3.3 36 2.2 93 93 undefined N/A 29.74 1007 N/A 0.16 4.064
10:54 pm 22:54 undefined 39 3.9 36 2.2 89 89 undefined N/A 29.71 1006 N/A 0.17 4.318
11:54 pm 23:54 undefined 40 4.4 37 2.8 89 89 undefined N/A 29.68 1005 N/A 0.14 3.556

Powered by AerisWeather